sat.trackr.live / text

‹ back to catalog

STARLINK-4026

NORAD 52600 · 2022-052C

PAYLOAD ACTIVE UNKNOWN

§ Identity

Operator
Country
US
Launch date
2022-05-14
Launch site
AFETR
Launch vehicle
Mass (kg)
RCS (m²)

Purposes: comms

External: N2YO · Heavens-Above · Gunter

§ Orbital elements

Epoch: 2026-09-20T02:59:51.647712Z

Period
94.01 min
Inclination
53.1593°
Eccentricity
0.0001328
Mean motion
15.31701701 rev/d
Perigee alt
469.8 km
Apogee alt
471.6 km
Semi-major
6,848.9 km
B*
2.3691e-5
RAAN
113.5329°
Arg perigee
87.7328°
Mean anomaly
272.3826°
Rev number
24,118

§ Raw data

STARLINK-40261 52600U 22052C   26263.12490333  .00000370  00000+0  23691-4 0  99922 52600  53.1593 113.5329 0001328  87.7328 272.3826 15.31701701241186

JSON: /api/v1/satellites/52600 · /tle

For live sub-satellite position, see the globe view (requires WebGL).

§ Visibility from observer

Set your observer location to see the next 7 days of passes ≥ 10°. The values pass through the URL so the page stays shareable.

No JS? Fill the form by hand. The geolocation button needs JavaScript.